| time (UTC) | temp F | wind direction | speed knots | gust knots | rain 1hr in | rain 24hr in | rain mn in | humidity % | barometer mb |
| 20260831174946 | 71 | 55 | 0.9 | 4.3 | 0.00 | 0.00 | 0.00 | 54 | 1010.4 |
| 20260831174447 | 71 | 63 | 0.9 | 4.3 | 0.00 | 0.00 | 0.00 | 53 | 1010.4 |
| 20260831173946 | 70 | 143 | 1.7 | 2.6 | 0.00 | 0.00 | 0.00 | 55 | 1010.5 |
| 20260831173446 | 69 | 32 | 0.9 | 5.2 | 0.00 | 0.00 | 0.00 | 56 | 1010.5 |
| 20260831172946 | 69 | 44 | 1.7 | 7.0 | 0.00 | 0.00 | 0.00 | 56 | 1010.5 |
| 20260831171946 | 69 | 35 | 1.7 | 3.5 | 0.00 | 0.00 | 0.00 | 57 | 1010.6 |
| 20260831171447 | 69 | 338 | 0.9 | 3.5 | 0.00 | 0.00 | 0.00 | 57 | 1010.6 |
| 20260831170946 | 69 | 5 | 1.7 | 4.3 | 0.00 | 0.00 | 0.00 | 58 | 1010.9 |
| 20260831170446 | 68 | 53 | 1.7 | 4.3 | 0.00 | 0.00 | 0.00 | 59 | 1010.9 |
| 20260831165946 | 68 | 90 | 0.9 | 3.5 | 0.00 | 0.00 | 0.00 | 60 | 1010.9 |
| 20260831165446 | 67 | 116 | 1.7 | 4.3 | 0.00 | 0.00 | 0.00 | 61 | 1010.9 |
| 20260831164946 | 67 | 57 | 2.6 | 5.2 | 0.00 | 0.00 | 0.00 | 61 | 1010.9 |
| 20260831164446 | 67 | 24 | 0.9 | 5.2 | 0.00 | 0.00 | 0.00 | 61 | 1010.9 |
| 20260831163946 | 67 | 56 | 2.6 | 4.3 | 0.00 | 0.00 | 0.00 | 60 | 1011.1 |
| 20260831162946 | 67 | 56 | 1.7 | 4.3 | 0.00 | 0.00 | 0.00 | 61 | 1011.1 |
| 20260831162446 | 67 | 57 | 1.7 | 4.3 | 0.00 | 0.00 | 0.00 | 61 | 1011.1 |
| 20260831161946 | 67 | 83 | 4.3 | 4.3 | 0.00 | 0.00 | 0.00 | 62 | 1011.1 |
| 20260831161446 | 67 | 73 | 0.0 | 3.5 | 0.00 | 0.00 | 0.00 | 62 | 1011.1 |
| 20260831160946 | 66 | 49 | 0.9 | 2.6 | 0.00 | 0.00 | 0.00 | 63 | 1011.3 |
| 20260831155446 | 66 | 114 | 0.0 | 0.0 | 0.00 | 0.00 | 0.00 | 64 | 1011.3 |
| 20260831154946 | 65 | 107 | 0.0 | 0.0 | 0.00 | 0.00 | 0.00 | 65 | 1011.3 |
| 20260831154446 | 65 | 55 | 0.0 | 0.0 | 0.00 | 0.00 | 0.00 | 66 | 1011.3 |
| 20260831153946 | 64 | 61 | 0.0 | 0.0 | 0.00 | 0.00 | 0.00 | 67 | 1011.3 |
| 20260831153446 | 63 | 341 | 0.0 | 0.0 | 0.00 | 0.00 | 0.00 | 70 | 1011.3 |
| 20260831152946 | 62 | 340 | 0.0 | 0.0 | 0.00 | 0.00 | 0.00 | 74 | 1011.3 |
| 20260831152446 | 60 | 340 | 0.0 | 0.0 | 0.00 | 0.00 | 0.00 | 77 | 1011.4 |
| 20260831151946 | 59 | 340 | 0.0 | 0.0 | 0.00 | 0.00 | 0.00 | 79 | 1011.3 |
| 20260831151446 | 58 | 340 | 0.0 | 0.0 | 0.00 | 0.00 | 0.00 | 81 | 1011.3 |
| 20260831150946 | 58 | 340 | 0.0 | 0.0 | 0.00 | 0.00 | 0.00 | 84 | 1011.3 |
| 20260831145946 | 56 | 340 | 0.0 | 0.0 | 0.00 | 0.00 | 0.00 | 88 | 1011.3 |
| 20260831145446 | 55 | 360 | 0.0 | 0.0 | 0.00 | 0.00 | 0.00 | 89 | 1011.5 |
| 20260831144945 | 54 | 360 | 0.0 | 0.0 | 0.00 | 0.00 | 0.00 | 91 | 1011.5 |
| 20260831144445 | 54 | 360 | 0.0 | 0.0 | 0.00 | 0.00 | 0.00 | 92 | 1011.5 |
| 20260831143945 | 53 | 360 | 0.0 | 0.0 | 0.00 | 0.00 | 0.00 | 92 | 1011.3 |
| 20260831143445 | 53 | 360 | 0.0 | 0.0 | 0.00 | 0.00 | 0.00 | 92 | 1011.3 |
| 20260831142945 | 52 | 360 | 0.0 | 0.0 | 0.00 | 0.00 | 0.00 | 92 | 1011.3 |
| 20260831142445 | 52 | 360 | 0.0 | 0.0 | 0.00 | 0.00 | 0.00 | 92 | 1011.3 |
| 20260831141946 | 51 | 360 | 0.0 | 0.0 | 0.00 | 0.00 | 0.00 | 92 | 1011.3 |
| 20260831141446 | 51 | 340 | 0.0 | 0.0 | 0.00 | 0.00 | 0.00 | 92 | 1011.3 |
| 20260831140945 | 51 | 340 | 0.0 | 0.0 | 0.00 | 0.00 | 0.00 | 92 | 1011.3 |
| 20260831140445 | 50 | 340 | 0.0 | 0.0 | 0.00 | 0.00 | 0.00 | 91 | 1011.3 |
| 20260831135945 | 50 | 340 | 0.0 | 0.0 | 0.00 | 0.00 | 0.00 | 91 | 1011.3 |
| 20260831135445 | 50 | 340 | 0.0 | 0.0 | 0.00 | 0.00 | 0.00 | 91 | 1011.4 |
| 20260831134946 | 50 | 340 | 0.0 | 0.0 | 0.00 | 0.00 | 0.00 | 90 | 1011.4 |
| 20260831133945 | 51 | 340 | 0.0 | 0.0 | 0.00 | 0.00 | 0.00 | 90 | 1011.4 |
| 20260831133445 | 51 | 340 | 0.0 | 0.0 | 0.00 | 0.00 | 0.00 | 89 | 1011.4 |
| 20260831132946 | 51 | 340 | 0.0 | 0.0 | 0.00 | 0.00 | 0.00 | 89 | 1011.4 |
| 20260831132445 | 51 | 340 | 0.0 | 0.0 | 0.00 | 0.00 | 0.00 | 89 | 1011.5 |
| 20260831131945 | 51 | 340 | 0.0 | 0.0 | 0.00 | 0.00 | 0.00 | 89 | 1011.5 |
| 20260831131445 | 51 | 340 | 0.0 | 0.0 | 0.00 | 0.00 | 0.00 | 89 | 1011.5 |
| 20260831130945 | 51 | 340 | 0.0 | 0.0 | 0.00 | 0.00 | 0.00 | 89 | 1011.5 |
| 20260831130445 | 51 | 340 | 0.0 | 0.0 | 0.00 | 0.00 | 0.00 | 89 | 1011.5 |
| 20260831125945 | 51 | 340 | 0.0 | 0.0 | 0.00 | 0.00 | 0.00 | 88 | 1011.5 |
| 20260831125445 | 52 | 340 | 0.0 | 0.0 | 0.00 | 0.00 | 0.00 | 88 | 1011.6 |
| 20260831124945 | 52 | 340 | 0.0 | 0.0 | 0.00 | 0.00 | 0.00 | 88 | 1011.6 |
| 20260831124445 | 52 | 340 | 0.0 | 0.0 | 0.00 | 0.00 | 0.00 | 88 | 1011.6 |
| 20260831123945 | 52 | 340 | 0.0 | 0.0 | 0.00 | 0.00 | 0.00 | 88 | 1011.7 |
| 20260831121945 | 52 | 340 | 0.0 | 0.0 | 0.00 | 0.00 | 0.00 | 87 | 1011.6 |
| 20260831121445 | 52 | 340 | 0.0 | 0.0 | 0.00 | 0.00 | 0.00 | 86 | 1011.6 |
| 20260831120945 | 52 | 340 | 0.0 | 0.0 | 0.00 | 0.00 | 0.00 | 86 | 1011.8 |
| 20260831120444 | 52 | 340 | 0.0 | 0.0 | 0.00 | 0.00 | 0.00 | 86 | 1011.8 |
| 20260831115945 | 52 | 340 | 0.0 | 0.0 | 0.00 | 0.00 | 0.00 | 86 | 1011.8 |
| 20260831115444 | 53 | 340 | 0.0 | 0.0 | 0.00 | 0.00 | 0.00 | 86 | 1011.9 |
| 20260831114945 | 53 | 340 | 0.0 | 0.0 | 0.00 | 0.00 | 0.00 | 86 | 1011.9 |
| 20260831113945 | 53 | 340 | 0.0 | 0.0 | 0.00 | 0.00 | 0.00 | 86 | 1012.0 |
| 20260831113444 | 53 | 340 | 0.0 | 0.0 | 0.00 | 0.00 | 0.00 | 85 | 1012.0 |
| 20260831112945 | 53 | 340 | 0.0 | 0.0 | 0.00 | 0.00 | 0.00 | 85 | 1012.0 |
| 20260831112445 | 53 | 340 | 0.0 | 0.0 | 0.00 | 0.00 | 0.00 | 85 | 1012.1 |
| 20260831110944 | 53 | 340 | 0.0 | 0.0 | 0.00 | 0.00 | 0.00 | 83 | 1012.1 |
| 20260831110444 | 53 | 340 | 0.0 | 0.0 | 0.00 | 0.00 | 0.00 | 83 | 1012.1 |
| 20260831105944 | 53 | 340 | 0.0 | 0.0 | 0.00 | 0.00 | 0.00 | 83 | 1012.1 |
| 20260831104944 | 54 | 340 | 0.0 | 0.0 | 0.00 | 0.00 | 0.00 | 83 | 1012.0 |
| 20260831104444 | 54 | 340 | 0.0 | 0.0 | 0.00 | 0.00 | 0.00 | 82 | 1012.0 |
| 20260831104014 | 54 | 340 | 0.0 | 0.0 | 0.00 | 0.00 | 0.00 | 82 | 1012.1 |
| 20260831103444 | 54 | 340 | 0.0 | 0.0 | 0.00 | 0.00 | 0.00 | 82 | 1012.1 |
| 20260831102444 | 54 | 340 | 0.0 | 0.0 | 0.00 | 0.00 | 0.00 | 82 | 1012.1 |
| 20260831101943 | 54 | 340 | 0.0 | 0.0 | 0.00 | 0.00 | 0.00 | 82 | 1012.1 |
| 20260831101444 | 54 | 340 | 0.0 | 0.0 | 0.00 | 0.00 | 0.00 | 82 | 1012.1 |
| 20260831100944 | 54 | 340 | 0.0 | 0.0 | 0.00 | 0.00 | 0.00 | 81 | 1012.2 |
| 20260831100444 | 54 | 340 | 0.0 | 0.0 | 0.00 | 0.00 | 0.00 | 81 | 1012.2 |
| 20260831095014 | 55 | 340 | 0.0 | 0.0 | 0.00 | 0.00 | 0.00 | 81 | 1012.4 |
| 20260831094514 | 55 | 340 | 0.0 | 0.0 | 0.00 | 0.00 | 0.00 | 82 | 1012.4 |
| 20260831093943 | 55 | 340 | 0.0 | 0.0 | 0.00 | 0.00 | 0.00 | 82 | 1012.6 |
| 20260831092943 | 55 | 340 | 0.0 | 0.0 | 0.00 | 0.00 | 0.00 | 81 | 1012.6 |
| 20260831092514 | 55 | 340 | 0.0 | 0.0 | 0.00 | 0.00 | 0.00 | 80 | 1012.7 |
| 20260831091943 | 56 | 340 | 0.0 | 0.0 | 0.00 | 0.00 | 0.00 | 79 | 1012.7 |
| 20260831091514 | 56 | 340 | 0.0 | 0.0 | 0.00 | 0.00 | 0.00 | 80 | 1012.7 |
| 20260831090943 | 56 | 340 | 0.0 | 0.0 | 0.00 | 0.00 | 0.00 | 80 | 1012.9 |
| 20260831090443 | 56 | 340 | 0.0 | 0.0 | 0.00 | 0.00 | 0.00 | 79 | 1012.9 |
| 20260831085943 | 56 | 340 | 0.0 | 0.0 | 0.00 | 0.00 | 0.00 | 79 | 1012.9 |
| 20260831085443 | 56 | 340 | 0.0 | 0.0 | 0.00 | 0.00 | 0.00 | 79 | 1013.0 |
| 20260831084943 | 57 | 340 | 0.0 | 0.0 | 0.00 | 0.00 | 0.00 | 79 | 1013.0 |
| 20260831084443 | 57 | 340 | 0.0 | 0.0 | 0.00 | 0.00 | 0.00 | 79 | 1013.0 |
| 20260831083943 | 57 | 340 | 0.0 | 0.0 | 0.00 | 0.00 | 0.00 | 79 | 1013.1 |
| 20260831083443 | 57 | 340 | 0.0 | 0.0 | 0.00 | 0.00 | 0.00 | 79 | 1013.1 |
| 20260831082443 | 57 | 340 | 0.0 | 0.0 | 0.00 | 0.00 | 0.00 | 79 | 1013.2 |
| 20260831081943 | 57 | 340 | 0.0 | 0.0 | 0.00 | 0.00 | 0.00 | 79 | 1013.2 |
| 20260831081443 | 57 | 340 | 0.0 | 0.0 | 0.00 | 0.00 | 0.00 | 79 | 1013.2 |
| 20260831080943 | 57 | 340 | 0.0 | 0.0 | 0.00 | 0.00 | 0.00 | 78 | 1013.3 |
| 20260831080443 | 57 | 340 | 0.0 | 0.0 | 0.00 | 0.00 | 0.00 | 78 | 1013.3 |
| 20260831075943 | 58 | 340 | 0.0 | 0.0 | 0.00 | 0.00 | 0.00 | 78 | 1013.3 |
| 20260831075442 | 58 | 340 | 0.0 | 0.0 | 0.00 | 0.00 | 0.00 | 78 | 1013.4 |
| 20260831074943 | 58 | 340 | 0.0 | 0.0 | 0.00 | 0.00 | 0.00 | 77 | 1013.4 |
| 20260831074443 | 58 | 340 | 0.0 | 0.0 | 0.00 | 0.00 | 0.00 | 77 | 1013.4 |
| 20260831073942 | 58 | 340 | 0.0 | 0.0 | 0.00 | 0.00 | 0.00 | 76 | 1013.6 |
| 20260831073442 | 58 | 340 | 0.0 | 0.0 | 0.00 | 0.00 | 0.00 | 76 | 1013.6 |
| 20260831072942 | 59 | 340 | 0.0 | 0.0 | 0.00 | 0.00 | 0.00 | 76 | 1013.6 |
| 20260831072442 | 59 | 340 | 0.0 | 0.0 | 0.00 | 0.00 | 0.00 | 76 | 1013.6 |
| 20260831071443 | 59 | 340 | 0.0 | 0.0 | 0.00 | 0.00 | 0.00 | 75 | 1013.6 |
| 20260831071012 | 59 | 340 | 0.0 | 0.0 | 0.00 | 0.00 | 0.00 | 75 | 1013.7 |
| 20260831070012 | 59 | 340 | 0.0 | 0.0 | 0.00 | 0.00 | 0.00 | 75 | 1013.7 |
| 20260831065442 | 59 | 340 | 0.0 | 0.0 | 0.00 | 0.00 | 0.00 | 74 | 1013.8 |
| 20260831064942 | 60 | 340 | 0.0 | 0.0 | 0.00 | 0.00 | 0.00 | 73 | 1013.9 |
| 20260831064442 | 60 | 340 | 0.0 | 0.0 | 0.00 | 0.00 | 0.00 | 72 | 1013.9 |
| 20260831063943 | 60 | 340 | 0.0 | 0.0 | 0.00 | 0.00 | 0.00 | 72 | 1014.0 |
| 20260831063442 | 60 | 340 | 0.0 | 0.0 | 0.00 | 0.00 | 0.00 | 72 | 1014.0 |
| 20260831063012 | 60 | 340 | 0.0 | 0.0 | 0.00 | 0.00 | 0.00 | 72 | 1014.0 |
| 20260831062442 | 61 | 340 | 0.0 | 0.0 | 0.00 | 0.00 | 0.00 | 72 | 1014.1 |
| 20260831062012 | 61 | 340 | 0.0 | 0.0 | 0.00 | 0.00 | 0.00 | 72 | 1014.1 |
| 20260831060942 | 61 | 340 | 0.0 | 0.0 | 0.00 | 0.00 | 0.00 | 71 | 1014.2 |
| 20260831060012 | 62 | 340 | 0.0 | 0.0 | 0.00 | 0.00 | 0.00 | 70 | 1014.2 |
| 20260831055442 | 62 | 340 | 0.0 | 0.0 | 0.00 | 0.00 | 0.00 | 70 | 1014.3 |
| 20260831055012 | 62 | 340 | 0.0 | 0.0 | 0.00 | 0.00 | 0.00 | 70 | 1014.3 |
| 20260831053942 | 62 | 342 | 0.0 | 1.7 | 0.00 | 0.00 | 0.00 | 69 | 1014.4 |
| 20260831053442 | 62 | 342 | 0.0 | 1.7 | 0.00 | 0.00 | 0.00 | 69 | 1014.4 |
| 20260831052942 | 63 | 325 | 0.0 | 1.7 | 0.00 | 0.00 | 0.00 | 68 | 1014.4 |
| 20260831051512 | 63 | 92 | 0.0 | 0.0 | 0.00 | 0.00 | 0.00 | 67 | 1014.5 |
| 20260831050942 | 63 | 92 | 0.0 | 0.0 | 0.00 | 0.00 | 0.00 | 67 | 1014.7 |
| 20260831050511 | 63 | 92 | 0.0 | 0.9 | 0.00 | 0.00 | 0.00 | 66 | 1014.7 |
| 20260831045511 | 64 | 44 | 0.0 | 1.7 | 0.00 | 0.00 | 0.00 | 66 | 1014.7 |
| 20260831045011 | 64 | 327 | 0.0 | 1.7 | 0.00 | 0.00 | 0.00 | 66 | 1014.7 |
| 20260831044441 | 64 | 117 | 0.0 | 0.0 | 0.00 | 0.00 | 0.00 | 66 | 1014.7 |
| 20260831043442 | 64 | 136 | 0.0 | 0.0 | 0.00 | 0.00 | 0.00 | 65 | 1014.8 |
| 20260831043011 | 64 | 136 | 0.0 | 1.7 | 0.00 | 0.00 | 0.00 | 65 | 1014.8 |
| 20260831042511 | 65 | 136 | 0.0 | 1.7 | 0.00 | 0.00 | 0.00 | 65 | 1014.7 |
| 20260831041941 | 65 | 136 | 1.7 | 1.7 | 0.00 | 0.00 | 0.00 | 64 | 1014.7 |
| 20260831041511 | 65 | 235 | 0.0 | 0.9 | 0.00 | 0.00 | 0.00 | 63 | 1014.7 |
| 20260831041012 | 65 | 235 | 0.0 | 0.9 | 0.00 | 0.00 | 0.00 | 63 | 1014.7 |
| 20260831040441 | 66 | 219 | 0.0 | 0.0 | 0.00 | 0.00 | 0.00 | 62 | 1014.7 |
| 20260831035942 | 66 | 219 | 0.0 | 0.9 | 0.00 | 0.00 | 0.00 | 62 | 1014.7 |
| 20260831035441 | 66 | 219 | 0.0 | 0.9 | 0.00 | 0.00 | 0.00 | 61 | 1014.5 |
| 20260831034942 | 66 | 218 | 0.9 | 0.9 | 0.00 | 0.00 | 0.00 | 61 | 1014.5 |
| 20260831034442 | 67 | 30 | 0.0 | 0.0 | 0.00 | 0.00 | 0.00 | 60 | 1014.6 |
| 20260831034011 | 67 | 30 | 0.0 | 0.0 | 0.00 | 0.00 | 0.00 | 59 | 1014.5 |
| 20260831033011 | 68 | 30 | 0.0 | 0.0 | 0.00 | 0.00 | 0.00 | 58 | 1014.5 |
| 20260831032441 | 68 | 31 | 0.0 | 1.7 | 0.00 | 0.00 | 0.00 | 57 | 1014.5 |
| 20260831031941 | 69 | 24 | 0.0 | 2.6 | 0.00 | 0.00 | 0.00 | 56 | 1014.5 |
| 20260831031511 | 69 | 21 | 0.0 | 2.6 | 0.00 | 0.00 | 0.00 | 55 | 1014.5 |
| 20260831030011 | 70 | 35 | 0.9 | 5.2 | 0.00 | 0.00 | 0.00 | 53 | 1014.4 |
| 20260831025510 | 70 | 55 | 0.9 | 4.3 | 0.00 | 0.00 | 0.00 | 52 | 1014.3 |
| 20260831024940 | 71 | 104 | 1.7 | 4.3 | 0.00 | 0.00 | 0.00 | 52 | 1014.3 |
| 20260831024441 | 71 | 32 | 4.3 | 4.3 | 0.00 | 0.00 | 0.00 | 51 | 1014.3 |
| 20260831024010 | 72 | 25 | 3.5 | 3.5 | 0.00 | 0.00 | 0.00 | 51 | 1014.2 |
| 20260831023510 | 72 | 30 | 1.7 | 2.6 | 0.00 | 0.00 | 0.00 | 50 | 1014.2 |
| 20260831022941 | 72 | 60 | 0.0 | 4.3 | 0.00 | 0.00 | 0.00 | 49 | 1014.2 |
| 20260831022510 | 72 | 44 | 2.6 | 6.1 | 0.00 | 0.00 | 0.00 | 49 | 1014.3 |
| 20260831022010 | 72 | 61 | 0.9 | 6.1 | 0.00 | 0.00 | 0.00 | 49 | 1014.3 |
| 20260831021510 | 73 | 46 | 3.5 | 5.2 | 0.00 | 0.00 | 0.00 | 48 | 1014.3 |
| 20260831021011 | 73 | 24 | 0.9 | 4.3 | 0.00 | 0.00 | 0.00 | 48 | 1014.5 |
| 20260831020510 | 73 | 46 | 0.9 | 5.2 | 0.00 | 0.00 | 0.00 | 47 | 1014.5 |
| 20260831015440 | 73 | 95 | 1.7 | 5.2 | 0.00 | 0.00 | 0.00 | 47 | 1014.5 |
| 20260831015010 | 73 | 38 | 0.9 | 5.2 | 0.00 | 0.00 | 0.00 | 47 | 1014.5 |
| 20260831014440 | 73 | 350 | 2.6 | 5.2 | 0.00 | 0.00 | 0.00 | 46 | 1014.5 |
| 20260831014010 | 73 | 71 | 0.0 | 6.1 | 0.00 | 0.00 | 0.00 | 46 | 1014.6 |
| 20260831013510 | 74 | 35 | 1.7 | 7.0 | 0.00 | 0.00 | 0.00 | 45 | 1014.6 |
| 20260831013010 | 74 | 58 | 2.6 | 7.0 | 0.00 | 0.00 | 0.00 | 45 | 1014.6 |
| 20260831012440 | 74 | 32 | 4.3 | 6.1 | 0.00 | 0.00 | 0.00 | 45 | 1014.6 |
| 20260831011940 | 74 | 61 | 2.6 | 6.1 | 0.00 | 0.00 | 0.00 | 45 | 1014.6 |
| 20260831005940 | 74 | 33 | 2.6 | 5.2 | 0.00 | 0.00 | 0.00 | 43 | 1014.7 |
| 20260831005510 | 75 | 62 | 0.9 | 5.2 | 0.00 | 0.00 | 0.00 | 43 | 1015.0 |
| 20260831005010 | 75 | 42 | 3.5 | 5.2 | 0.00 | 0.00 | 0.00 | 42 | 1015.0 |
| 20260831004440 | 75 | 275 | 0.0 | 2.6 | 0.00 | 0.00 | 0.00 | 43 | 1015.0 |
| 20260831004010 | 75 | 17 | 0.9 | 5.2 | 0.00 | 0.00 | 0.00 | 44 | 1015.1 |
| 20260831003440 | 75 | 53 | 0.9 | 5.2 | 0.00 | 0.00 | 0.00 | 42 | 1015.1 |
| 20260831003009 | 75 | 49 | 2.6 | 6.1 | 0.00 | 0.00 | 0.00 | 42 | 1015.1 |
| 20260831002440 | 75 | 120 | 1.7 | 6.1 | 0.00 | 0.00 | 0.00 | 42 | 1015.2 |
| 20260831001939 | 75 | 122 | 0.9 | 5.2 | 0.00 | 0.00 | 0.00 | 42 | 1015.2 |
| 20260831001510 | 75 | 26 | 3.5 | 5.2 | 0.00 | 0.00 | 0.00 | 41 | 1015.2 |
| 20260831001009 | 76 | 61 | 0.9 | 5.2 | 0.00 | 0.00 | 0.00 | 41 | 1015.5 |
| 20260831000509 | 76 | 321 | 0.9 | 4.3 | 0.00 | 0.00 | 0.00 | 41 | 1015.5 |
| 20260830235509 | 76 | 28 | 0.0 | 4.3 | 0.00 | 0.00 | 0.00 | 40 | 1015.6 |
| 20260830235010 | 77 | 174 | 0.9 | 5.2 | 0.00 | 0.00 | 0.00 | 40 | 1015.6 |
| 20260830234509 | 77 | 227 | 0.9 | 5.2 | 0.00 | 0.00 | 0.00 | 39 | 1015.6 |
| 20260830234010 | 77 | 31 | 1.7 | 6.1 | 0.00 | 0.00 | 0.00 | 40 | 1015.8 |
| 20260830232509 | 76 | 73 | 0.9 | 5.2 | 0.00 | 0.00 | 0.00 | 41 | 1016.1 |
| 20260830231940 | 76 | 82 | 2.6 | 4.3 | 0.00 | 0.00 | 0.00 | 40 | 1016.1 |
| 20260830231509 | 76 | 338 | 1.7 | 6.1 | 0.00 | 0.00 | 0.00 | 40 | 1016.1 |
| 20260830231009 | 76 | 39 | 3.5 | 6.1 | 0.00 | 0.00 | 0.00 | 40 | 1016.2 |
| 20260830230009 | 75 | 165 | 1.7 | 7.0 | 0.00 | 0.00 | 0.00 | 41 | 1016.2 |
| 20260830224939 | 76 | 80 | 1.7 | 7.0 | 0.00 | 0.00 | 0.00 | 39 | 1016.4 |
| 20260830224509 | 75 | 26 | 2.6 | 7.0 | 0.00 | 0.00 | 0.00 | 40 | 1016.4 |
| 20260830223939 | 76 | 63 | 6.1 | 7.0 | 0.00 | 0.00 | 0.00 | 39 | 1016.7 |
| 20260830223509 | 76 | 31 | 0.0 | 5.2 | 0.00 | 0.00 | 0.00 | 39 | 1016.7 |
| 20260830222439 | 75 | 120 | 3.5 | 6.1 | 0.00 | 0.00 | 0.00 | 39 | 1017.0 |
| 20260830222009 | 75 | 333 | 3.5 | 6.1 | 0.00 | 0.00 | 0.00 | 40 | 1017.0 |
| 20260830220939 | 76 | 122 | 2.6 | 6.1 | 0.00 | 0.00 | 0.00 | 38 | 1017.2 |
| 20260830220509 | 76 | 355 | 3.5 | 7.0 | 0.00 | 0.00 | 0.00 | 39 | 1017.2 |
| 20260830215439 | 75 | 355 | 2.6 | 7.0 | 0.00 | 0.00 | 0.00 | 41 | 1017.5 |
| 20260830215009 | 75 | 38 | 0.9 | 5.2 | 0.00 | 0.00 | 0.00 | 39 | 1017.5 |
| 20260830213009 | 74 | 28 | 4.3 | 7.0 | 0.00 | 0.00 | 0.00 | 41 | 1017.7 |
| 20260830211943 | 74 | 26 | 0.0 | 7.8 | 0.00 | 0.00 | 0.00 | 41 | 1017.9 |
| 20260830211442 | 74 | 333 | 0.9 | 7.0 | 0.00 | 0.00 | 0.00 | 41 | 1017.9 |
| 20260830211012 | 73 | 43 | 2.6 | 7.0 | 0.00 | 0.00 | 0.00 | 42 | 1018.1 |
| 20260830210513 | 73 | 13 | 3.5 | 6.1 | 0.00 | 0.00 | 0.00 | 41 | 1018.1 |
| 20260830205942 | 73 | 217 | 1.7 | 6.1 | 0.00 | 0.00 | 0.00 | 42 | 1018.1 |
| 20260830205512 | 72 | 191 | 0.9 | 7.0 | 0.00 | 0.00 | 0.00 | 44 | 1018.2 |
| 20260830204942 | 72 | 84 | 4.3 | 7.0 | 0.00 | 0.00 | 0.00 | 44 | 1018.2 |
| 20260830204512 | 72 | 5 | 3.5 | 6.1 | 0.00 | 0.00 | 0.00 | 43 | 1018.2 |
| 20260830204012 | 72 | 355 | 1.7 | 6.1 | 0.00 | 0.00 | 0.00 | 43 | 1018.3 |
| 20260830202942 | 72 | 209 | 0.9 | 5.2 | 0.00 | 0.00 | 0.00 | 43 | 1018.3 |
| 20260830202442 | 73 | 153 | 1.7 | 5.2 | 0.00 | 0.00 | 0.00 | 41 | 1018.7 |
| 20260830201442 | 72 | 50 | 0.9 | 6.1 | 0.00 | 0.00 | 0.00 | 44 | 1018.7 |
| 20260830200512 | 71 | 10 | 3.5 | 7.8 | 0.00 | 0.00 | 0.00 | 45 | 1018.8 |
| 20260830200012 | 71 | 75 | 2.6 | 7.0 | 0.00 | 0.00 | 0.00 | 45 | 1018.8 |
| 20260830195512 | 71 | 76 | 3.5 | 6.1 | 0.00 | 0.00 | 0.00 | 44 | 1018.9 |
| 20260830194942 | 71 | 42 | 1.7 | 5.2 | 0.00 | 0.00 | 0.00 | 45 | 1018.9 |
| 20260830194442 | 71 | 253 | 0.9 | 6.1 | 0.00 | 0.00 | 0.00 | 45 | 1018.9 |
| 20260830194012 | 70 | 140 | 0.9 | 6.1 | 0.00 | 0.00 | 0.00 | 45 | 1019.2 |
| 20260830192942 | 71 | 88 | 0.9 | 6.1 | 0.00 | 0.00 | 0.00 | 46 | 1019.2 |
| 20260830192442 | 70 | 340 | 1.7 | 7.0 | 0.00 | 0.00 | 0.00 | 47 | 1019.4 |
| 20260830192012 | 70 | 64 | 2.6 | 7.0 | 0.00 | 0.00 | 0.00 | 47 | 1019.4 |
| 20260830191442 | 69 | 76 | 0.9 | 4.3 | 0.00 | 0.00 | 0.00 | 49 | 1019.4 |
| 20260830190942 | 68 | 18 | 2.6 | 7.0 | 0.00 | 0.00 | 0.00 | 51 | 1019.5 |
| 20260830190442 | 68 | 61 | 1.7 | 7.0 | 0.00 | 0.00 | 0.00 | 50 | 1019.5 |
| 20260830185942 | 68 | 53 | 3.5 | 5.2 | 0.00 | 0.00 | 0.00 | 50 | 1019.5 |
| 20260830185442 | 69 | 26 | 2.6 | 6.1 | 0.00 | 0.00 | 0.00 | 50 | 1019.8 |
| 20260830184942 | 69 | 99 | 2.6 | 6.1 | 0.00 | 0.00 | 0.00 | 51 | 1019.8 |
| 20260830184442 | 69 | 40 | 5.2 | 5.2 | 0.00 | 0.00 | 0.00 | 50 | 1019.8 |
| 20260830183942 | 69 | 342 | 0.9 | 4.3 | 0.00 | 0.00 | 0.00 | 51 | 1019.8 |
| 20260830183442 | 68 | 165 | 0.9 | 4.3 | 0.00 | 0.00 | 0.00 | 52 | 1019.8 |
| 20260830182942 | 68 | 84 | 2.6 | 5.2 | 0.00 | 0.00 | 0.00 | 53 | 1019.8 |
| 20260830182442 | 68 | 126 | 2.6 | 6.1 | 0.00 | 0.00 | 0.00 | 53 | 1019.9 |
| 20260830180942 | 67 | 61 | 2.6 | 6.1 | 0.00 | 0.00 | 0.00 | 52 | 1020.0 |
| 20260830180442 | 67 | 86 | 0.0 | 6.1 | 0.00 | 0.00 | 0.00 | 52 | 1020.0 |
| 20260830175942 | 67 | 107 | 0.9 | 6.1 | 0.00 | 0.00 | 0.00 | 55 | 1020.0 |
| 20260830175442 | 66 | 58 | 1.7 | 6.1 | 0.00 | 0.00 | 0.00 | 55 | 1020.0 |